Terminal Aerodrome Forecast
Issued by NWS

Home | Current Version | Previous Version | Graphics & Text | Print | Product List | Glossary On
Versions: 1 2 3 4 5 6 7 8 9 10 11 12 13 14 15 16 17
000
FTUS43 KICT 242242 AAC
TAFHUT
TAF AMD
KHUT 242242Z 2423/2518 21003KT P6SM -SHRA VCTS BKN100CB
      TEMPO 2423/2502 VRB25G35KT 5SM -TSRA SCT025 OVC040CB
     FM250500 29004KT P6SM -SHRA OVC040
     FM251000 VRB05KT P6SM -SHRA OVC030
     FM251500 34010KT P6SM -SHRA VCTS OVC030CB=

USA.gov is the U.S. government's official web portal to all federal, state and local government web resources and services.